Qasigiannguit

KL  EN  DA
ASIAQ
Weather Now GREENLAND SURVEY
Updated [WGT/WGST] Temperature [°C] Wind [m/s] Air pressure [hPa] Relative humidity [%] Precipitation [mm]
Present Wind chill Speed Max
24.09 02:00-5,2-12,16,0 ⇓10,51013520,1
24.09 01:00-4,9-10,64,4 ⇓6,41014560,0
24.09 00:00-3,2-8,13,9 ⇙5,81015430,0
23.09 23:00-3,3-7,73,3 ⇙5,51016520,0
23.09 22:00-4,0-8,02,7 ⇓4,11016570,0
23.09 21:00-4,9-9,73,3 ⇓4,81017570,0
23.09 20:00-4,4-9,43,7 ⇙5,61018640,0
23.09 19:00-3,8-9,44,5 ⇓6,51018640,0
23.09 18:00-2,6-6,12,6 ⇙4,91018570,0
23.09 17:00-1,8-6,23,5 ⇙5,11018540,0
23.09 16:00-1,2-5,53,7 ⇙5,41019510,0
23.09 15:00-2,2-7,14,2 ⇙6,41018580,0
23.09 14:00-1,1-6,24,8 ⇙6,61019510,0
23.09 13:00-0,9-5,74,5 ⇙6,51019510,0
23.09 12:00-0,8-4,73,3 ⇐5,51019520,0
23.09 11:00-1,1-5,33,5 ⇐5,91018510,0
23.09 10:00-1,5-5,73,5 ⇙5,61018550,0
23.09 09:00-1,3-6,14,3 ⇙6,61018470,0
23.09 08:00-2,9-8,14,5 ⇓5,81017530,0
23.09 07:00-4,9-10,64,3 ⇓5,61017670,0
23.09 06:00-5,1-10,74,3 ⇓5,11017630,0
23.09 05:00-4,8-10,64,5 ⇓5,91016650,0
23.09 04:00-4,9-9,12,7 ⇓3,81016700,0
23.09 03:00-5,2-7,71,5 ⇓3,01016740,0
23.09 02:00-4,7-7,92,0 ⇓3,11015680,0
Position: (68.823667,-51.173861)

[Back]